Location: Bezins
(42.9315°N, 0.6944°E)
Time: 12:50:21
(UTC+00:00)

Daily predictions for brighter satellites

Satellite Brightness Start Highest point End
(mag) Time Altitude Azimuth Time Altitude Azimuth Time Altitude Azimuth
Cosmos 962 Rocket 4.5 16:48:35 10° N 16:54:51 72° E 17:01:00 10° SSE
Cosmos 2297 3.7 16:49:10 10° NNW 16:54:52 69° ENE 17:00:33 10° SSE
SL-16 R/B 2.2 16:51:19 10° SSW 16:56:59 83° ESE 17:02:40 10° NNE
CZ-4B R/B 2.9 16:57:23 10° NE 16:59:30 17° E 17:01:39 10° SE
Landsat 5 3.7 16:56:17 10° NNE 17:00:48 83° ESE 17:05:19 10° SSW
BREEZE-M DEB (TANK) 1.8 16:58:20 10° WSW 17:01:31 77° NNW 17:03:26 10° ENE
SMAP 3.1 17:00:17 10° SSE 17:04:49 55° ENE 17:09:23 10° N
USA 215 4.4 17:00:01 10° ENE 17:05:16 25° SE 17:10:28 10° S
Sich 1 3.4 17:04:33 10° NNW 17:08:55 71° W 17:13:11 10° S
Cosmos 1151 Rocket 3.0 17:07:01 10° S 17:11:13 59° E 17:15:24 10° NNE
CZ-4C R/B 3.6 17:08:10 10° N 17:11:46 63° WNW 17:15:19 10° SSW
Cosmos 1470 Rocket 4.0 17:09:46 10° N 17:13:47 36° ENE 17:17:47 10° SE
Cosmos 1515 Rocket 4.1 17:15:17 10° SSE 17:19:17 36° E 17:23:19 10° NNE
CZ-2C R/B 4.2 17:17:32 10° ESE 17:20:51 18° ENE 17:24:07 10° NNE
TIMED 4.5 17:18:16 10° S 17:22:34 67° ESE 17:26:56 10° NNE
Cosmos 482 Debris 2.5 17:20:55 10° NW 17:22:40 50° NNE 17:23:46 20° ESE
SL-8 Rocket 4.0 17:16:44 10° N 17:23:01 80° E 17:29:19 10° S
Cosmos 2341 Rocket 4.3 17:18:15 10° N 17:24:34 77° W 17:30:54 10° S
Cosmos 1238 Rocket 4.5 17:23:06 10° NNE 17:25:57 17° ENE 17:29:08 10° ESE
Radarsat Rocket 4.5 17:20:34 10° S 17:26:38 74° WSW 17:33:30 10° NNW
COSMO-SKYMED 1 3.4 17:23:26 10° NE 17:27:14 29° E 17:31:01 10° SSE
X-37B 0.5 17:24:15 10° WSW 17:27:25 88° SSE 17:29:28 20° ENE
Cosmos 1689 Rocket 4.2 17:29:01 12° ESE 17:29:01 12° ESE 17:29:42 10° SE
USA 281 4.1 17:22:58 10° ESE 17:28:14 27° NE 17:33:32 10° N
Cosmos 1959 Rocket 4.5 17:22:13 10° N 17:28:37 73° E 17:34:56 10° SSE
Cosmos 2228 Rocket 4.2 17:28:18 10° SE 17:31:57 25° E 17:34:29 15° NE
CORIOLIS 4.1 17:26:43 10° SSE 17:32:08 86° ENE 17:37:37 10° NNW
USA 81 4.0 17:27:17 10° N 17:32:36 83° E 17:37:53 10° S
Meteor 1-4 Rocket 2.4 17:29:36 10° S 17:33:10 72° E 17:36:43 10° NNE
Cosmos 2285 Rocket 4.2 17:28:41 10° NNW 17:35:06 79° WSW 17:41:24 10° SSE
H-2A R/B 3.3 17:35:17 18° ENE 17:35:46 18° ENE 17:39:10 10° NNE
Cosmos 1812 3.9 17:32:44 10° SE 17:35:47 23° E 17:36:35 21° ENE
Cosmos 1939 Rocket 3.2 17:34:26 10° SE 17:38:03 40° ENE 17:41:45 10° N
USA 267 4.2 17:34:11 16° ENE 17:38:20 31° NNE 17:43:55 10° NW
Cosmos 1821 Rocket 4.5 17:32:51 10° N 17:38:37 37° ENE 17:44:25 10° SE
Cosmos 1328 Rocket 3.7 17:34:49 10° SSW 17:39:08 78° W 17:43:30 10° N
CZ-4 R/B 2.8 17:41:27 20° NE 17:41:27 20° NE 17:43:33 10° NNE
BREEZE-M DEB (TANK) 3.5 17:37:55 10° SSW 17:41:36 25° SSE 17:42:53 19° ESE
Cosmos 44 Rocket 4.3 17:38:25 10° NNW 17:42:56 29° NE 17:45:09 22° E
Cosmos 1933 Rocket 3.7 17:39:31 10° N 17:43:55 53° ENE 17:48:15 10° SSE
IRS-1C Rocket 4.3 17:39:26 10° SE 17:44:26 45° ENE 17:49:27 10° N
Cosmos 1602 3.7 17:42:32 10° N 17:46:28 89° E 17:50:20 10° S
Cosmos 2181 Rocket 4.4 17:40:39 10° SSW 17:47:02 69° W 17:53:22 10° N
H-2A R/B 4.5 17:43:27 10° SSW 17:47:15 31° W 17:50:57 10° NW
Lacrosse 4 Rocket 3.3 17:45:43 10° SE 17:46:58 14° ESE 17:46:58 14° ESE
NOAA 11 4.2 17:42:44 10° SSE 17:48:09 90° ENE 17:53:38 10° NNW
Cosmos 1680 Rocket 4.3 17:44:03 10° SSE 17:48:33 29° E 17:50:18 24° ENE
CZ-4B R/B 3.8 17:44:15 10° S 17:49:28 57° WSW 17:54:41 10° NNW
SL-24 R/B 4.0 17:49:33 24° NE 17:51:22 42° E 17:54:50 10° S
Cosmos 1603 3.7 17:47:02 10° S 17:52:34 63° ESE 17:56:55 17° NNE
CZ-2D R/B 3.5 17:51:17 10° SE 17:54:54 43° ENE 17:58:34 10° N
Cosmos 1943 3.2 17:50:25 10° S 17:55:57 59° ESE 17:59:58 19° NE
Cosmos 1538 Rocket 4.2 17:52:44 10° SSW 17:58:05 77° WNW 18:03:31 10° NNE
H-2A R/B 3.8 17:55:14 10° N 17:58:57 31° WNW 18:02:46 10° SW
Cosmos 2369 Rocket 2.1 17:53:54 10° NNW 17:59:37 82° ENE 18:05:16 10° SSE
Cosmos 1943 Rocket 2.7 17:55:21 10° NNW 18:00:49 61° WSW 18:06:19 10° S
Cosmos 1782 3.4 17:57:40 10° SSW 18:01:33 58° W 18:05:30 10° N
Okean O Rocket 2.9 17:57:33 10° S 18:01:40 42° W 18:05:51 10° NNW
Meteor 1-14 Rocket 4.3 17:56:03 10° N 18:02:04 90° W 18:08:04 10° S
Meteor 1-5 Rocket 4.3 17:56:21 10° N 18:02:10 55° ENE 18:07:45 10° SSE
Cosmos 1461 4.1 17:58:55 10° S 18:02:44 27° ESE 18:02:44 27° ESE
Okean-O 3.0 17:59:09 10° SE 18:03:16 40° ENE 18:07:26 10° N
CENTAUR R/B 3.0 18:00:53 10° S 18:06:01 35° ESE 18:07:44 30° E
ISS -2.0 18:03:38 10° NW 18:05:55 21° N 18:05:55 21° N
Cosmos 2112 Rocket 4.5 18:04:13 10° SSE 18:09:02 38° ESE 18:09:53 35° E
SL-08 R/B 4.5 18:06:57 10° N 18:13:07 84° W 18:19:13 10° S
ERS-2 2.7 18:10:45 14° N 18:13:44 56° WNW 18:17:18 10° SSW
NOSS 3-2 (C) 3.8 18:09:02 10° S 18:14:06 38° ESE 18:15:09 35° E
SKYMED 2 3.5 18:11:44 14° N 18:15:27 84° WNW 18:19:48 10° SSW
Cosmos 1869 Rocket 3.9 18:14:17 10° N 18:22:43 12° SSE 18:23:00 10° SSE
BREEZE-M DEB (TANK) 3.2 18:09:31 10° SW 18:19:02 77° SSE 18:19:59 51° ENE
Meteor 1-27 Rocket 4.0 18:15:13 10° SSE 18:20:11 40° E 18:20:11 40° E
Meteor 1-10 Rocket 4.1 18:19:04 10° S 18:24:41 74° E 18:28:49 19° NNE
Lacrosse 5 rocket 3.4 18:23:36 10° NW 18:25:26 13° NNW 18:25:53 13° NNW
BREEZE-M DEB (TANK) 4.5 18:26:03 10° NW 18:26:37 15° NW 18:26:37 15° NW
FALCON 9 R/B 3.0 18:27:37 10° SW 18:28:30 15° SSW 18:28:30 15° SSW
CZ-4B R/B 3.7 18:29:34 12° NNW 18:31:42 22° WNW 18:34:13 10° WSW
NOSS 3-2 (A) 3.3 18:33:40 10° SW 18:39:16 85° NW 18:41:27 43° NNE
Cosmos 1500 4.3 18:38:46 10° NNW 18:42:26 44° W 18:46:04 10° SSW
YAOGAN 1 3.8 18:46:29 31° NNW 18:46:29 31° NNW 18:48:47 10° NNW
Cosmos 2239 Rocket 4.5 18:39:08 10° N 18:45:19 82° W 18:51:31 10° S
Cosmos 1535 Rocket 4.3 18:40:07 10° N 18:46:13 66° E 18:52:17 10° SSE
USA 215 3.1 18:46:43 48° NE 18:48:46 89° NW 18:55:20 10° SW
Cosmos 1656 Rocket 4.0 18:49:03 10° NNW 18:54:39 65° WSW 18:58:58 16° S
MOS 1 Rocket 3.7 18:52:44 34° N 18:55:11 75° WNW 19:00:30 10° SSW
USA 238 DEB 3.7 18:52:02 10° SW 18:58:37 75° NW 19:00:34 49° NNE
USA 238 3.7 18:52:08 10° SW 18:58:41 76° NW 19:00:39 49° NNE
CZ-2C R/B 3.5 18:55:28 10° S 19:00:22 54° W 19:05:07 10° NNW
X-37B 3.7 19:01:03 10° WNW 19:01:44 15° WNW 19:01:44 15° WNW
Cosmos 1238 Rocket 4.3 19:01:33 10° NNW 19:05:29 43° W 19:10:13 10° SSW
Cosmos 1934 Rocket 4.0 19:01:48 10° N 19:08:11 80° W 19:14:27 10° S
CSL-04 Debris 4.4 19:09:14 64° NNW 19:09:14 64° NNW 19:13:53 10° NNW
USA 281 3.4 19:05:41 10° SSE 19:12:13 69° WSW 19:18:47 10° NNW
H-2A R/B 2.7 19:15:56 49° NW 19:15:56 49° NW 19:19:49 10° NNW
CZ-4 R/B 3.8 19:17:28 19° NW 19:17:28 19° NW 19:18:54 10° NNW
USA 267 3.4 19:21:32 60° N 19:21:32 60° N 19:27:08 10° NW
Cosmos 44 Rocket 4.4 19:19:42 10° NW 19:23:56 44° W 19:23:56 44° W
Lacrosse 4 Rocket 3.9 19:22:19 10° SW 19:23:20 17° SW 19:23:20 17° SW
CENTAUR R/B 3.6 19:50:41 10° WSW 19:54:59 40° W 19:54:59 40° W
